CSS (TIANHE) (48274 NORAD) Tracking and Keplerian Element Data

This shows tracking and keplerian element data for the satellite.

Feedback or suggestion? Click here.




ElementValue
Catalog48274
NameCSS (TIANHE)
Epoch Orbit15467
Epoch Day13.16816226
Epoch Year2024
RAAN316.2531
Inclination41.47
Eccentricity0.0004609
Argument of Perigee102.9686
Mean Anonmoly257.1669
Mean Motion15.62778559
Decay Rate0.00045383
L11 48274U 21035A 24013.16816226 .00045383 00000+0 49073-3 0 9996
L22 48274 41.4700 316.2531 0004609 102.9686 257.1669 15.62778559154679



Live tracking and technical data element details for CSS (TIANHE) (NORAD 48274). CSS (TIANHE) can be tracked NOW for your location showing map with azimuth and elevation plus other details from your city location.







IsCatalogInMostPopularTable: catalog: 48274, numindb: 2700
Update: records affected: 1



GetName: 48274 CSS (TIANHE)

Hit Count: updated at: Sat, 20 Apr 2024 09:26:41 GMT